Flag for U.S.A. Weather past 2 weeks in Lewiston, Idaho, U.S.A.

Now
69 °F

Sunny.


Feels Like: 69 °F
Forecast: 43 / 67 °F
Wind: 15 mph from North

Location: Lewiston-Nez Perce County Airport

Current Time: Apr 18, 2015 at 2:46:57 PM

Latest Report: Apr 18, 2015 at 1:56 PM


Visibility: 10 mi

Pressure: 30.23 "Hg

Humidity: 21%

Dew point: 27 °F

Location of LewistonLocation

Historic Weather in Lewiston — Graph

°F

Lewiston temperature yesterday

Maximum temperature yesterday: 73 °F (at 3:56 PM)
Minimum temperature yesterday: 39 °F (at 5:56 AM)
Average temperature yesterday: 56 °F

Past Weeks' High & Low Weather Summary

 TemperatureHumidityPressure
High73 °F (Apr 17, 3:56 PM)97% (Apr 6, 2:56 AM)30.45 "Hg (Apr 6, 2:56 AM)
Low33 °F (Apr 5, 6:56 AM)23% (Apr 18, 12:56 PM)29.65 "Hg (Apr 5, 3:56 PM)
Average49 °F57%30.02 "Hg
* Reported Apr 3 12:56 PM — Apr 18 12:56 PM, Lewiston, Weather by CustomWeather, © 2015

Note: Actual official high and low records may vary slightly from our data, if they occured in-between our weather recording intervals... More about our weather records

Advertising

Lewiston weather history for previous 24 hours

 ConditionsComfort  
Time TempWeatherWind HumidityBarometerVisibility
12:56 PM
Sat, Apr 18
68 °FSunny.14 mph23%30.23 "Hg10 mi
11:56 AM65 °FSunny.13 mph27%30.23 "Hg10 mi
10:56 AM64 °FSunny.8 mph29%30.24 "Hg10 mi
9:56 AM59 °FSunny.7 mph42%30.25 "Hg10 mi
8:56 AM54 °FSunny.No wind59%30.25 "Hg10 mi
7:56 AM48 °FSunny.7 mph63%30.24 "Hg10 mi
6:56 AM45 °FSunny.No wind71%30.22 "Hg10 mi
5:56 AM43 °FClear.7 mph74%30.19 "Hg10 mi
4:56 AM46 °FClear.5 mph68%30.17 "Hg10 mi
3:56 AM47 °FClear.No wind69%30.15 "Hg10 mi
2:56 AM47 °FClear.No wind69%30.14 "Hg10 mi
1:56 AM48 °FClear.6 mph66%30.13 "Hg10 mi
12:56 AM49 °FClear.7 mph66%30.12 "Hg10 mi
11:56 PM
Fri, Apr 17
54 °FClear.3 mph53%30.11 "Hg10 mi
10:56 PM55 °FClear.9 mph51%30.10 "Hg10 mi
9:56 PM56 °FClear.5 mph49%30.09 "Hg10 mi
8:56 PM60 °FClear.3 mph39%30.08 "Hg10 mi
7:56 PM64 °FSunny.3 mph33%30.06 "Hg10 mi
6:56 PM68 °FSunny.8 mph30%30.06 "Hg10 mi
5:56 PM71 °FSunny.8 mph26%30.06 "Hg10 mi
4:56 PM72 °FSunny.8 mph25%30.08 "Hg10 mi
3:56 PM73 °FSunny.12 mph30%30.09 "Hg10 mi
2:56 PM72 °FSunny.7 mph29%30.09 "Hg10 mi
Weather by CustomWeather, © 2015

See weather overviewHow to use our weather pages